| time (UTC) | temp F | wind direction | speed knots | gust knots | rain 1hr in | rain 24hr in | rain mn in | humidity % | barometer mb |
| 20260506144552 | 72 | 350 | 5.2 | 9.6 | 0.00 | 0.00 | 0.00 | 47 | 1016.1 |
| 20260506144034 | 72 | 350 | 4.3 | 10.4 | 0.00 | 0.00 | 0.00 | 45 | 1016.1 |
| 20260506143534 | 71 | 348 | 3.5 | 10.4 | 0.00 | 0.00 | 0.00 | 47 | 1016.1 |
| 20260506143053 | 71 | 350 | 4.3 | 10.4 | 0.00 | 0.00 | 0.00 | 47 | 1016.2 |
| 20260506142532 | 70 | 350 | 3.5 | 11.3 | 0.00 | 0.00 | 0.00 | 50 | 1016.2 |
| 20260506142033 | 71 | 350 | 6.1 | 11.3 | 0.00 | 0.00 | 0.00 | 51 | 1016.2 |
| 20260506141551 | 71 | 349 | 4.3 | 10.4 | 0.00 | 0.00 | 0.00 | 50 | 1016.2 |
| 20260506141036 | 71 | 350 | 5.2 | 10.4 | 0.00 | 0.00 | 0.00 | 50 | 1016.2 |
| 20260506140533 | 71 | 348 | 5.2 | 11.3 | 0.00 | 0.00 | 0.00 | 50 | 1016.1 |
| 20260506140051 | 71 | 349 | 6.1 | 12.2 | 0.00 | 0.00 | 0.00 | 51 | 1016.2 |
| 20260506135535 | 71 | 350 | 2.6 | 12.2 | 0.00 | 0.00 | 0.00 | 50 | 1016.2 |
| 20260506135033 | 71 | 350 | 4.3 | 14.8 | 0.00 | 0.00 | 0.00 | 49 | 1016.2 |
| 20260506134616 | 71 | 349 | 4.3 | 14.8 | 0.00 | 0.00 | 0.00 | 51 | 1016.2 |
| 20260506134034 | 71 | 350 | 6.1 | 14.8 | 0.00 | 0.00 | 0.00 | 50 | 1016.3 |
| 20260506133534 | 71 | 351 | 3.5 | 11.3 | 0.00 | 0.00 | 0.00 | 51 | 1016.3 |
| 20260506133053 | 72 | 350 | 2.6 | 8.7 | 0.00 | 0.00 | 0.00 | 48 | 1016.2 |
| 20260506132533 | 72 | 0 | 4.3 | 8.7 | 0.00 | 0.00 | 0.00 | 53 | 1016.2 |
| 20260506132035 | 72 | 350 | 3.5 | 7.8 | 0.00 | 0.00 | 0.00 | 53 | 1016.2 |
| 20260506131605 | 72 | 350 | 3.5 | 7.8 | 0.00 | 0.00 | 0.00 | 54 | 1016.3 |
| 20260506131035 | 72 | 348 | 4.3 | 9.6 | 0.00 | 0.00 | 0.00 | 54 | 1016.1 |
| 20260506130534 | 71 | 350 | 3.5 | 9.6 | 0.00 | 0.00 | 0.00 | 54 | 1016.2 |
| 20260506130048 | 72 | 350 | 4.3 | 7.8 | 0.00 | 0.00 | 0.00 | 53 | 1016.2 |
| 20260506125533 | 72 | 349 | 3.5 | 7.8 | 0.00 | 0.00 | 0.00 | 55 | 1016.3 |
| 20260506125033 | 72 | 350 | 1.7 | 7.8 | 0.00 | 0.00 | 0.00 | 54 | 1016.2 |
| 20260506124546 | 73 | 350 | 2.6 | 7.8 | 0.00 | 0.00 | 0.00 | 53 | 1016.3 |
| 20260506124033 | 72 | 350 | 3.5 | 7.8 | 0.00 | 0.00 | 0.00 | 52 | 1016.4 |
| 20260506123533 | 72 | 350 | 2.6 | 9.6 | 0.00 | 0.00 | 0.00 | 50 | 1016.4 |
| 20260506123050 | 71 | 351 | 2.6 | 9.6 | 0.00 | 0.00 | 0.00 | 52 | 1016.4 |
| 20260506122533 | 71 | 351 | 4.3 | 9.6 | 0.00 | 0.00 | 0.00 | 52 | 1016.5 |
| 20260506122031 | 71 | 350 | 5.2 | 9.6 | 0.00 | 0.00 | 0.00 | 51 | 1016.5 |
| 20260506121549 | 72 | 350 | 4.3 | 9.6 | 0.00 | 0.00 | 0.00 | 51 | 1016.5 |
| 20260506121034 | 72 | 350 | 3.5 | 10.4 | 0.00 | 0.00 | 0.00 | 51 | 1016.5 |
| 20260506120535 | 71 | 351 | 4.3 | 11.3 | 0.00 | 0.00 | 0.00 | 56 | 1016.5 |
| 20260506120051 | 71 | 351 | 6.1 | 11.3 | 0.00 | 0.00 | 0.00 | 53 | 1016.6 |
| 20260506115536 | 71 | 350 | 5.2 | 10.4 | 0.00 | 0.00 | 0.00 | 55 | 1016.6 |
| 20260506115033 | 72 | 351 | 4.3 | 12.2 | 0.00 | 0.00 | 0.00 | 54 | 1016.7 |
| 20260506114552 | 71 | 351 | 5.2 | 12.2 | 0.00 | 0.00 | 0.00 | 52 | 1016.6 |
| 20260506114032 | 72 | 350 | 6.1 | 11.3 | 0.00 | 0.00 | 0.00 | 51 | 1016.7 |
| 20260506113536 | 72 | 350 | 2.6 | 11.3 | 0.00 | 0.00 | 0.00 | 50 | 1016.7 |
| 20260506113048 | 71 | 350 | 6.1 | 11.3 | 0.00 | 0.00 | 0.00 | 51 | 1016.6 |
| 20260506112533 | 71 | 350 | 6.1 | 11.3 | 0.00 | 0.00 | 0.00 | 47 | 1016.7 |
| 20260506112033 | 71 | 350 | 7.0 | 11.3 | 0.00 | 0.00 | 0.00 | 45 | 1016.7 |
| 20260506111610 | 72 | 350 | 6.1 | 11.3 | 0.00 | 0.00 | 0.00 | 48 | 1016.6 |
| 20260506111033 | 71 | 350 | 5.2 | 10.4 | 0.00 | 0.00 | 0.00 | 49 | 1016.5 |
| 20260506110533 | 71 | 350 | 6.1 | 10.4 | 0.00 | 0.00 | 0.00 | 49 | 1016.6 |
| 20260506110054 | 72 | 350 | 4.3 | 10.4 | 0.00 | 0.00 | 0.00 | 50 | 1016.6 |
| 20260506105533 | 72 | 350 | 4.3 | 7.8 | 0.00 | 0.00 | 0.00 | 52 | 1016.6 |
| 20260506105034 | 72 | 350 | 3.5 | 8.7 | 0.00 | 0.00 | 0.00 | 54 | 1016.6 |
| 20260506104548 | 72 | 351 | 4.3 | 8.7 | 0.00 | 0.00 | 0.00 | 50 | 1016.5 |
| 20260506104033 | 72 | 350 | 4.3 | 8.7 | 0.00 | 0.00 | 0.00 | 50 | 1016.6 |
| 20260506103533 | 72 | 351 | 3.5 | 9.6 | 0.00 | 0.00 | 0.00 | 51 | 1016.6 |
| 20260506103048 | 72 | 350 | 4.3 | 9.6 | 0.00 | 0.00 | 0.00 | 50 | 1016.6 |
| 20260506102536 | 73 | 350 | 3.5 | 8.7 | 0.00 | 0.00 | 0.00 | 53 | 1016.6 |
| 20260506102039 | 72 | 351 | 4.3 | 9.6 | 0.00 | 0.00 | 0.00 | 49 | 1016.7 |
| 20260506101550 | 72 | 351 | 5.2 | 9.6 | 0.00 | 0.00 | 0.00 | 48 | 1016.7 |
| 20260506101035 | 72 | 350 | 4.3 | 8.7 | 0.00 | 0.00 | 0.00 | 47 | 1016.7 |
| 20260506100536 | 72 | 351 | 5.2 | 8.7 | 0.00 | 0.00 | 0.00 | 44 | 1016.6 |
| 20260506100045 | 72 | 351 | 4.3 | 9.6 | 0.00 | 0.00 | 0.00 | 43 | 1016.7 |
| 20260506095533 | 72 | 351 | 4.3 | 9.6 | 0.00 | 0.00 | 0.00 | 44 | 1016.6 |
| 20260506095035 | 73 | 350 | 4.3 | 9.6 | 0.00 | 0.00 | 0.00 | 44 | 1016.7 |
| 20260506094545 | 73 | 350 | 7.0 | 9.6 | 0.00 | 0.00 | 0.00 | 43 | 1016.7 |
| 20260506094037 | 74 | 350 | 6.1 | 9.6 | 0.00 | 0.00 | 0.00 | 42 | 1016.7 |
| 20260506093533 | 74 | 350 | 3.5 | 8.7 | 0.00 | 0.00 | 0.00 | 41 | 1016.7 |
| 20260506093054 | 74 | 351 | 2.6 | 8.7 | 0.00 | 0.00 | 0.00 | 41 | 1016.7 |
| 20260506092533 | 73 | 351 | 4.3 | 10.4 | 0.00 | 0.00 | 0.00 | 41 | 1016.7 |
| 20260506092039 | 74 | 350 | 4.3 | 11.3 | 0.00 | 0.00 | 0.00 | 43 | 1016.8 |
| 20260506091552 | 74 | 351 | 3.5 | 11.3 | 0.00 | 0.00 | 0.00 | 43 | 1016.7 |
| 20260506091033 | 73 | 351 | 7.0 | 11.3 | 0.00 | 0.00 | 0.00 | 43 | 1016.8 |
| 20260506090536 | 73 | 351 | 5.2 | 10.4 | 0.00 | 0.00 | 0.00 | 46 | 1016.8 |
| 20260506090047 | 73 | 351 | 4.3 | 10.4 | 0.00 | 0.00 | 0.00 | 47 | 1016.7 |
| 20260506085534 | 73 | 351 | 3.5 | 10.4 | 0.00 | 0.00 | 0.00 | 48 | 1016.7 |
| 20260506085035 | 73 | 351 | 5.2 | 11.3 | 0.00 | 0.00 | 0.00 | 47 | 1016.6 |
| 20260506084549 | 73 | 351 | 5.2 | 11.3 | 0.00 | 0.00 | 0.00 | 46 | 1016.5 |
| 20260506084033 | 73 | 350 | 4.3 | 8.7 | 0.00 | 0.00 | 0.00 | 46 | 1016.6 |
| 20260506083534 | 73 | 351 | 4.3 | 8.7 | 0.00 | 0.00 | 0.00 | 48 | 1016.5 |
| 20260506083112 | 73 | 351 | 2.6 | 7.8 | 0.00 | 0.00 | 0.00 | 49 | 1016.5 |
| 20260506082535 | 73 | 351 | 2.6 | 8.7 | 0.00 | 0.00 | 0.00 | 48 | 1016.5 |
| 20260506082035 | 72 | 350 | 3.5 | 8.7 | 0.00 | 0.00 | 0.00 | 48 | 1016.5 |
| 20260506081552 | 72 | 351 | 4.3 | 9.6 | 0.00 | 0.00 | 0.00 | 48 | 1016.5 |
| 20260506081033 | 72 | 351 | 2.6 | 9.6 | 0.00 | 0.00 | 0.00 | 49 | 1016.5 |
| 20260506080533 | 72 | 351 | 5.2 | 9.6 | 0.00 | 0.00 | 0.00 | 49 | 1016.5 |
| 20260506073048 | 71 | 350 | 4.3 | 7.8 | 0.00 | 0.00 | 0.00 | 49 | 1016.3 |
| 20260506072536 | 70 | 352 | 4.3 | 10.4 | 0.00 | 0.00 | 0.00 | 49 | 1016.3 |
| 20260506072034 | 70 | 350 | 5.2 | 10.4 | 0.00 | 0.00 | 0.00 | 49 | 1016.2 |
| 20260506071551 | 70 | 350 | 3.5 | 9.6 | 0.00 | 0.00 | 0.00 | 49 | 1016.2 |
| 20260506071033 | 69 | 351 | 3.5 | 8.7 | 0.00 | 0.00 | 0.00 | 49 | 1016.1 |
| 20260506070536 | 69 | 350 | 2.6 | 7.0 | 0.00 | 0.00 | 0.00 | 49 | 1016.1 |
| 20260506062033 | 68 | 350 | 0.9 | 2.6 | 0.00 | 0.00 | 0.00 | 51 | 1016.2 |
| 20260506061550 | 68 | 350 | 0.9 | 2.6 | 0.00 | 0.00 | 0.00 | 52 | 1016.2 |
| 20260506061034 | 67 | 0 | 0.0 | 1.7 | 0.00 | 0.00 | 0.00 | 54 | 1016.1 |
| 20260506060534 | 67 | 350 | 0.0 | 1.7 | 0.00 | 0.00 | 0.00 | 55 | 1016.1 |
| 20260506051033 | 63 | 355 | 1.7 | 4.3 | 0.00 | 0.00 | 0.00 | 63 | 1015.9 |
| 20260506050534 | 62 | 352 | 0.9 | 4.3 | 0.00 | 0.00 | 0.00 | 66 | 1015.8 |
| 20260506045032 | 59 | 0 | 0.9 | 2.6 | 0.00 | 0.00 | 0.00 | 72 | 1015.7 |
| 20260506044550 | 58 | 0 | 0.0 | 1.7 | 0.00 | 0.00 | 0.00 | 72 | 1015.7 |
| 20260506044034 | 58 | 355 | 0.0 | 1.7 | 0.00 | 0.00 | 0.00 | 73 | 1015.8 |
| 20260506043534 | 57 | 0 | 0.0 | 0.0 | 0.00 | 0.00 | 0.00 | 74 | 1015.7 |
| 20260506043047 | 57 | 0 | 0.0 | 1.7 | 0.00 | 0.00 | 0.00 | 73 | 1015.7 |
| 20260506042533 | 57 | 0 | 0.0 | 2.6 | 0.00 | 0.00 | 0.00 | 73 | 1015.7 |
| 20260506042034 | 57 | 355 | 0.0 | 2.6 | 0.00 | 0.00 | 0.00 | 74 | 1015.6 |
| 20260506041549 | 56 | 0 | 0.0 | 2.6 | 0.00 | 0.00 | 0.00 | 73 | 1015.6 |
| 20260506041033 | 56 | 355 | 0.0 | 1.7 | 0.00 | 0.00 | 0.00 | 73 | 1015.6 |
| 20260506040533 | 56 | 0 | 0.0 | 4.3 | 0.00 | 0.00 | 0.00 | 72 | 1015.7 |
| 20260506040059 | 56 | 0 | 0.9 | 4.3 | 0.00 | 0.00 | 0.00 | 72 | 1015.6 |
| 20260506035533 | 56 | 355 | 1.7 | 4.3 | 0.00 | 0.00 | 0.00 | 72 | 1015.5 |
| 20260506035035 | 56 | 355 | 0.0 | 2.6 | 0.00 | 0.00 | 0.00 | 72 | 1015.5 |
| 20260506034557 | 56 | 0 | 0.0 | 4.3 | 0.00 | 0.00 | 0.00 | 71 | 1015.4 |
| 20260506034032 | 56 | 0 | 0.9 | 4.3 | 0.00 | 0.00 | 0.00 | 71 | 1015.3 |
| 20260506033536 | 56 | 355 | 2.6 | 4.3 | 0.00 | 0.00 | 0.00 | 71 | 1015.3 |
| 20260506033049 | 56 | 355 | 0.9 | 4.3 | 0.00 | 0.00 | 0.00 | 70 | 1015.2 |
| 20260506032536 | 56 | 16 | 2.6 | 4.3 | 0.00 | 0.00 | 0.00 | 70 | 1015.2 |
| 20260506032036 | 56 | 352 | 1.7 | 3.5 | 0.00 | 0.00 | 0.00 | 69 | 1015.1 |
| 20260506031548 | 57 | 355 | 0.9 | 2.6 | 0.00 | 0.00 | 0.00 | 70 | 1015.1 |
| 20260506031036 | 57 | 352 | 0.0 | 2.6 | 0.00 | 0.00 | 0.00 | 69 | 1015.0 |
| 20260506030534 | 58 | 0 | 0.0 | 1.7 | 0.00 | 0.00 | 0.00 | 69 | 1015.1 |
| 20260506030047 | 58 | 0 | 0.0 | 1.7 | 0.00 | 0.00 | 0.00 | 68 | 1015.1 |
| 20260506025535 | 59 | 0 | 0.0 | 2.6 | 0.00 | 0.00 | 0.00 | 68 | 1014.9 |
| 20260506025035 | 59 | 351 | 0.0 | 2.6 | 0.00 | 0.00 | 0.00 | 67 | 1014.9 |
| 20260506024557 | 60 | 351 | 1.7 | 2.6 | 0.00 | 0.00 | 0.00 | 65 | 1015.0 |
| 20260506024035 | 61 | 351 | 0.0 | 2.6 | 0.00 | 0.00 | 0.00 | 65 | 1014.9 |
| 20260506023533 | 62 | 0 | 0.0 | 5.2 | 0.00 | 0.00 | 0.00 | 65 | 1014.9 |
| 20260506023044 | 62 | 0 | 0.9 | 7.0 | 0.00 | 0.00 | 0.00 | 65 | 1014.9 |
| 20260506022535 | 62 | 351 | 1.7 | 7.0 | 0.00 | 0.00 | 0.00 | 65 | 1015.0 |
| 20260506022034 | 62 | 351 | 3.5 | 7.0 | 0.00 | 0.00 | 0.00 | 65 | 1015.1 |
| 20260506021551 | 62 | 351 | 0.9 | 7.8 | 0.00 | 0.00 | 0.00 | 64 | 1015.1 |
| 20260506021036 | 63 | 351 | 1.7 | 7.8 | 0.00 | 0.00 | 0.00 | 63 | 1015.1 |
| 20260506020535 | 62 | 350 | 2.6 | 7.8 | 0.00 | 0.00 | 0.00 | 65 | 1015.1 |
| 20260506020104 | 62 | 350 | 1.7 | 3.5 | 0.00 | 0.00 | 0.00 | 65 | 1015.1 |
| 20260506015538 | 62 | 351 | 1.7 | 3.5 | 0.00 | 0.00 | 0.00 | 65 | 1015.2 |
| 20260506015035 | 62 | 350 | 1.7 | 4.3 | 0.00 | 0.00 | 0.00 | 65 | 1015.2 |
| 20260506014557 | 62 | 350 | 1.7 | 5.2 | 0.00 | 0.00 | 0.00 | 65 | 1015.2 |
| 20260506014035 | 62 | 350 | 2.6 | 5.2 | 0.00 | 0.00 | 0.00 | 64 | 1015.2 |
| 20260506013535 | 62 | 350 | 3.5 | 5.2 | 0.00 | 0.00 | 0.00 | 63 | 1015.2 |
| 20260506013055 | 63 | 349 | 1.7 | 3.5 | 0.00 | 0.00 | 0.00 | 62 | 1015.2 |
| 20260506012533 | 63 | 348 | 1.7 | 3.5 | 0.00 | 0.00 | 0.00 | 61 | 1015.2 |
| 20260506012035 | 63 | 346 | 0.9 | 8.7 | 0.00 | 0.00 | 0.00 | 61 | 1015.1 |
| 20260506011610 | 64 | 0 | 0.0 | 8.7 | 0.00 | 0.00 | 0.00 | 60 | 1015.1 |
| 20260506011033 | 64 | 352 | 1.7 | 11.3 | 0.00 | 0.00 | 0.00 | 60 | 1015.1 |
| 20260506010534 | 64 | 0 | 3.5 | 11.3 | 0.00 | 0.00 | 0.00 | 60 | 1015.1 |
| 20260506010048 | 64 | 351 | 7.0 | 16.5 | 0.00 | 0.00 | 0.00 | 60 | 1015.2 |
| 20260506005533 | 65 | 352 | 6.1 | 17.4 | 0.00 | 0.00 | 0.00 | 59 | 1015.0 |
| 20260506005036 | 65 | 352 | 6.1 | 18.2 | 0.00 | 0.00 | 0.00 | 59 | 1015.0 |
| 20260506004601 | 65 | 352 | 9.6 | 18.2 | 0.00 | 0.00 | 0.00 | 59 | 1015.1 |
| 20260506004036 | 65 | 351 | 10.4 | 18.2 | 0.00 | 0.00 | 0.00 | 59 | 1015.0 |
| 20260506003536 | 65 | 352 | 7.8 | 24.3 | 0.00 | 0.00 | 0.00 | 59 | 1015.0 |
| 20260506003049 | 65 | 352 | 13.0 | 24.3 | 0.00 | 0.00 | 0.00 | 59 | 1015.1 |
| 20260506002535 | 65 | 351 | 7.8 | 25.2 | 0.00 | 0.00 | 0.00 | 57 | 1015.1 |
| 20260506002036 | 66 | 351 | 8.7 | 25.2 | 0.00 | 0.00 | 0.00 | 56 | 1015.1 |
| 20260506001550 | 66 | 352 | 13.0 | 22.6 | 0.00 | 0.00 | 0.00 | 56 | 1015.1 |
| 20260506001036 | 65 | 351 | 8.7 | 18.2 | 0.00 | 0.00 | 0.00 | 56 | 1015.1 |
| 20260506000536 | 65 | 352 | 7.8 | 19.1 | 0.00 | 0.00 | 0.00 | 57 | 1015.2 |
| 20260506000116 | 65 | 352 | 9.6 | 19.1 | 0.00 | 0.00 | 0.00 | 58 | 1015.1 |
| 20260505235535 | 65 | 352 | 5.2 | 18.2 | 0.00 | 0.00 | 0.00 | 59 | 1015.1 |
| 20260505235038 | 65 | 351 | 7.8 | 18.2 | 0.00 | 0.00 | 0.00 | 58 | 1015.1 |
| 20260505234552 | 65 | 352 | 10.4 | 18.2 | 0.00 | 0.00 | 0.00 | 57 | 1015.2 |
| 20260505234035 | 65 | 352 | 8.7 | 17.4 | 0.00 | 0.00 | 0.00 | 57 | 1015.2 |
| 20260505233534 | 65 | 352 | 8.7 | 15.6 | 0.00 | 0.00 | 0.00 | 57 | 1015.3 |
| 20260505233059 | 65 | 352 | 8.7 | 16.5 | 0.00 | 0.00 | 0.00 | 57 | 1015.3 |
| 20260505232533 | 65 | 352 | 8.7 | 16.5 | 0.00 | 0.00 | 0.00 | 58 | 1015.3 |
| 20260505232038 | 64 | 351 | 7.8 | 14.8 | 0.00 | 0.00 | 0.00 | 61 | 1015.4 |
| 20260505231604 | 61 | 352 | 6.1 | 12.2 | 0.00 | 0.00 | 0.00 | 65 | 1015.5 |
| 20260505231036 | 59 | 351 | 5.2 | 12.2 | 0.00 | 0.00 | 0.00 | 70 | 1015.5 |
| 20260505230534 | 56 | 352 | 0.9 | 5.2 | 0.00 | 0.00 | 0.00 | 70 | 1015.6 |
| 20260505225537 | 55 | 0 | 0.0 | 1.7 | 0.00 | 0.00 | 0.00 | 69 | 1015.6 |
| 20260505225037 | 55 | 0 | 0.0 | 2.6 | 0.00 | 0.00 | 0.00 | 68 | 1015.6 |
| 20260505224548 | 56 | 0 | 0.0 | 2.6 | 0.00 | 0.00 | 0.00 | 68 | 1015.7 |
| 20260505224035 | 56 | 322 | 0.0 | 2.6 | 0.00 | 0.00 | 0.00 | 68 | 1015.7 |
| 20260505223534 | 56 | 322 | 0.9 | 2.6 | 0.00 | 0.00 | 0.00 | 69 | 1015.8 |
| 20260505223047 | 55 | 322 | 0.9 | 2.6 | 0.00 | 0.00 | 0.00 | 68 | 1015.8 |
| 20260505222535 | 55 | 0 | 0.9 | 1.7 | 0.00 | 0.00 | 0.00 | 68 | 1015.9 |
| 20260505222034 | 56 | 322 | 0.0 | 1.7 | 0.00 | 0.00 | 0.00 | 68 | 1016.0 |
| 20260505221556 | 56 | 0 | 0.0 | 1.7 | 0.00 | 0.00 | 0.00 | 67 | 1015.8 |
| 20260505221036 | 56 | 322 | 0.0 | 2.6 | 0.00 | 0.00 | 0.00 | 67 | 1015.8 |
| 20260505220534 | 56 | 0 | 0.0 | 2.6 | 0.00 | 0.00 | 0.00 | 68 | 1015.8 |
| 20260505220049 | 56 | 323 | 0.0 | 1.7 | 0.00 | 0.00 | 0.00 | 67 | 1015.8 |
| 20260505215535 | 56 | 0 | 0.0 | 0.9 | 0.00 | 0.00 | 0.00 | 66 | 1015.8 |
| 20260505215035 | 56 | 322 | 0.0 | 0.9 | 0.00 | 0.00 | 0.00 | 66 | 1015.8 |
| 20260505214545 | 56 | 0 | 0.0 | 0.9 | 0.00 | 0.00 | 0.00 | 65 | 1015.8 |
| 20260505214035 | 56 | 0 | 0.0 | 0.9 | 0.00 | 0.00 | 0.00 | 65 | 1015.8 |
| 20260505213534 | 56 | 0 | 0.0 | 1.7 | 0.00 | 0.00 | 0.00 | 64 | 1015.8 |
| 20260505213048 | 56 | 0 | 0.0 | 1.7 | 0.00 | 0.00 | 0.00 | 64 | 1015.9 |
| 20260505212534 | 56 | 0 | 0.0 | 1.7 | 0.00 | 0.00 | 0.00 | 64 | 1015.8 |
| 20260505212035 | 56 | 0 | 0.0 | 2.6 | 0.00 | 0.00 | 0.00 | 63 | 1015.8 |
| 20260505211547 | 57 | 0 | 0.0 | 2.6 | 0.00 | 0.00 | 0.00 | 63 | 1015.8 |
| 20260505211035 | 57 | 0 | 0.0 | 1.7 | 0.00 | 0.00 | 0.00 | 63 | 1015.8 |
| 20260505210535 | 57 | 0 | 0.0 | 1.7 | 0.00 | 0.00 | 0.00 | 62 | 1015.9 |
| 20260505210047 | 57 | 322 | 0.0 | 1.7 | 0.00 | 0.00 | 0.00 | 62 | 1015.9 |
| 20260505205534 | 57 | 0 | 0.0 | 1.7 | 0.00 | 0.00 | 0.00 | 62 | 1015.9 |
| 20260505205036 | 57 | 0 | 0.0 | 3.5 | 0.00 | 0.00 | 0.00 | 61 | 1015.9 |
| 20260505204552 | 57 | 323 | 0.9 | 3.5 | 0.00 | 0.00 | 0.00 | 61 | 1015.9 |
| 20260505204034 | 57 | 322 | 0.9 | 2.6 | 0.00 | 0.00 | 0.00 | 61 | 1016.0 |
| 20260505203537 | 57 | 322 | 0.0 | 1.7 | 0.00 | 0.00 | 0.00 | 61 | 1016.0 |
| 20260505203056 | 58 | 0 | 0.0 | 1.7 | 0.00 | 0.00 | 0.00 | 61 | 1016.1 |
| 20260505202534 | 58 | 323 | 0.9 | 1.7 | 0.00 | 0.00 | 0.00 | 61 | 1016.1 |
| 20260505202036 | 59 | 0 | 0.0 | 0.9 | 0.00 | 0.00 | 0.00 | 60 | 1016.0 |
| 20260505201550 | 59 | 0 | 0.0 | 0.9 | 0.00 | 0.00 | 0.00 | 59 | 1016.1 |
| 20260505201036 | 60 | 0 | 0.0 | 0.0 | 0.00 | 0.00 | 0.00 | 59 | 1016.2 |
| 20260505200536 | 60 | 0 | 0.0 | 0.0 | 0.00 | 0.00 | 0.00 | 58 | 1016.2 |
| 20260505200049 | 60 | 0 | 0.0 | 0.9 | 0.00 | 0.00 | 0.00 | 57 | 1016.1 |
| 20260505195538 | 61 | 0 | 0.0 | 0.9 | 0.00 | 0.00 | 0.00 | 56 | 1016.1 |
| 20260505195034 | 61 | 0 | 0.0 | 1.7 | 0.00 | 0.00 | 0.00 | 55 | 1016.0 |
| 20260505194604 | 61 | 323 | 0.0 | 2.6 | 0.00 | 0.00 | 0.00 | 54 | 1016.0 |
| 20260505194036 | 61 | 323 | 0.0 | 3.5 | 0.00 | 0.00 | 0.00 | 54 | 1016.0 |
| 20260505193535 | 61 | 323 | 1.7 | 3.5 | 0.00 | 0.00 | 0.00 | 54 | 1016.0 |
| 20260505193048 | 61 | 323 | 0.9 | 3.5 | 0.00 | 0.00 | 0.00 | 55 | 1016.1 |
| 20260505192535 | 61 | 328 | 1.7 | 3.5 | 0.00 | 0.00 | 0.00 | 55 | 1016.0 |
| 20260505192033 | 61 | 0 | 0.9 | 3.5 | 0.00 | 0.00 | 0.00 | 55 | 1015.9 |
| 20260505191600 | 61 | 331 | 0.9 | 3.5 | 0.00 | 0.00 | 0.00 | 56 | 1016.0 |
| 20260505191033 | 61 | 331 | 1.7 | 3.5 | 0.00 | 0.00 | 0.00 | 56 | 1016.0 |
| 20260505190536 | 61 | 335 | 0.0 | 2.6 | 0.00 | 0.00 | 0.00 | 56 | 1016.0 |
| 20260505190054 | 61 | 0 | 0.0 | 2.6 | 0.00 | 0.00 | 0.00 | 56 | 1015.9 |
| 20260505185535 | 61 | 335 | 0.9 | 4.3 | 0.00 | 0.00 | 0.00 | 56 | 1015.8 |
| 20260505185037 | 61 | 279 | 0.9 | 4.3 | 0.00 | 0.00 | 0.00 | 56 | 1015.8 |
| 20260505184551 | 61 | 355 | 2.6 | 4.3 | 0.00 | 0.00 | 0.00 | 57 | 1015.8 |
| 20260505184033 | 61 | 319 | 1.7 | 4.3 | 0.00 | 0.00 | 0.00 | 57 | 1015.8 |
| 20260505183532 | 61 | 313 | 1.7 | 4.3 | 0.00 | 0.00 | 0.00 | 57 | 1015.8 |
| 20260505183047 | 62 | 308 | 0.9 | 3.5 | 0.00 | 0.00 | 0.00 | 56 | 1015.7 |
| 20260505182533 | 62 | 308 | 0.9 | 3.5 | 0.00 | 0.00 | 0.00 | 56 | 1015.7 |
| 20260505182033 | 62 | 309 | 1.7 | 3.5 | 0.00 | 0.00 | 0.00 | 56 | 1015.5 |
| 20260505181548 | 63 | 336 | 0.9 | 2.6 | 0.00 | 0.00 | 0.00 | 55 | 1015.5 |
| 20260505181033 | 63 | 336 | 0.9 | 2.6 | 0.00 | 0.00 | 0.00 | 54 | 1015.5 |
| 20260505180533 | 63 | 0 | 0.0 | 1.7 | 0.00 | 0.00 | 0.00 | 54 | 1015.5 |
| 20260505180054 | 63 | 0 | 0.0 | 1.7 | 0.00 | 0.00 | 0.00 | 53 | 1015.5 |
| 20260505175533 | 64 | 0 | 0.0 | 0.9 | 0.00 | 0.00 | 0.00 | 53 | 1015.5 |
| 20260505175034 | 64 | 0 | 0.0 | 1.7 | 0.00 | 0.00 | 0.00 | 54 | 1015.5 |
| 20260505174552 | 64 | 0 | 0.0 | 2.6 | 0.00 | 0.00 | 0.00 | 53 | 1015.5 |
| 20260505174034 | 65 | 0 | 0.0 | 2.6 | 0.00 | 0.00 | 0.00 | 52 | 1015.5 |
| 20260505173534 | 65 | 352 | 0.0 | 2.6 | 0.00 | 0.00 | 0.00 | 52 | 1015.5 |
| 20260505173104 | 65 | 0 | 0.0 | 0.9 | 0.00 | 0.00 | 0.00 | 52 | 1015.5 |
| 20260505172533 | 65 | 0 | 0.0 | 4.3 | 0.00 | 0.00 | 0.00 | 52 | 1015.5 |
| 20260505172033 | 66 | 0 | 0.0 | 4.3 | 0.00 | 0.00 | 0.00 | 51 | 1015.5 |
| 20260505171603 | 66 | 0 | 0.0 | 2.6 | 0.00 | 0.00 | 0.00 | 51 | 1015.6 |
| 20260505171034 | 66 | 0 | 0.0 | 4.3 | 0.00 | 0.00 | 0.00 | 51 | 1015.5 |
| 20260505170532 | 66 | 348 | 0.0 | 4.3 | 0.00 | 0.00 | 0.00 | 50 | 1015.6 |
| 20260505170047 | 66 | 349 | 0.9 | 4.3 | 0.00 | 0.00 | 0.00 | 48 | 1015.6 |
| 20260505165534 | 67 | 0 | 0.9 | 4.3 | 0.00 | 0.00 | 0.00 | 48 | 1015.5 |
| 20260505165033 | 67 | 348 | 0.9 | 3.5 | 0.00 | 0.00 | 0.00 | 48 | 1015.6 |
| 20260505164547 | 67 | 0 | 0.0 | 3.5 | 0.00 | 0.00 | 0.00 | 50 | 1015.7 |
| 20260505164035 | 67 | 0 | 0.0 | 2.6 | 0.00 | 0.00 | 0.00 | 52 | 1015.6 |
| 20260505163534 | 67 | 0 | 0.0 | 3.5 | 0.00 | 0.00 | 0.00 | 53 | 1015.7 |
| 20260505163053 | 67 | 347 | 0.9 | 4.3 | 0.00 | 0.00 | 0.00 | 53 | 1015.6 |
| 20260505162532 | 67 | 349 | 0.9 | 5.2 | 0.00 | 0.00 | 0.00 | 54 | 1015.6 |
| 20260505162033 | 67 | 350 | 0.0 | 5.2 | 0.00 | 0.00 | 0.00 | 55 | 1015.7 |
| 20260505161553 | 67 | 346 | 0.9 | 5.2 | 0.00 | 0.00 | 0.00 | 56 | 1015.7 |
| 20260505161033 | 68 | 350 | 1.7 | 5.2 | 0.00 | 0.00 | 0.00 | 56 | 1015.5 |
| 20260505160536 | 67 | 351 | 1.7 | 11.3 | 0.00 | 0.00 | 0.00 | 57 | 1015.4 |
| 20260505153050 | 69 | 350 | 1.7 | 8.7 | 0.00 | 0.00 | 0.00 | 51 | 1015.5 |
| 20260505152537 | 69 | 349 | 4.3 | 8.7 | 0.00 | 0.00 | 0.00 | 48 | 1015.5 |
| 20260505152033 | 70 | 349 | 3.5 | 8.7 | 0.00 | 0.00 | 0.00 | 47 | 1015.5 |
| 20260505151544 | 70 | 350 | 1.7 | 9.6 | 0.00 | 0.00 | 0.00 | 47 | 1015.4 |
| 20260505151033 | 70 | 351 | 5.2 | 9.6 | 0.00 | 0.00 | 0.00 | 46 | 1015.3 |
| 20260505150533 | 71 | 349 | 3.5 | 8.7 | 0.00 | 0.00 | 0.00 | 46 | 1015.3 |
| 20260505150108 | 71 | 350 | 3.5 | 8.7 | 0.00 | 0.00 | 0.00 | 47 | 1015.3 |